Home   Weather   Paris 10   Past weeks
Flag for France

Past Weather in Paris 10, Paris, France — Yesterday and Last 2 Weeks

Now
48 °F

Light rain. Low clouds.


Feels Like: 44 °F
Forecast: 57 / 50 °F
Wind: 10 mph from Southwest

Location: Villacoublay
Current Time: Oct 27, 2020 at 11:29:06 am
Latest Report: Oct 27, 2020 at 11:00 am
Visibility: N/A
Pressure29.77 "Hg
Humidity: 94%
Dew Point: 46 °F
Location of Paris 10Location

Past Weather in Paris 10 — Graph

°F

Paris 10 Temperature Yesterday

Maximum temperature yesterday: 55 °F (at 1:00 pm)
Minimum temperature yesterday: 45 °F (at 4:30 am)
Average temperature yesterday: 49 °F

High & Low Weather Summary for the Past Weeks

 TemperatureHumidityPressure
High68 °F (Oct 21, 2:30 pm)100% (Oct 13, 9:00 am)30.27 "Hg (Oct 13, 9:00 am)
Low39 °F (Oct 18, 8:00 am)51% (Oct 19, 4:30 pm)29.47 "Hg (Oct 21, 8:30 am)
Average52 °F83%29.92 "Hg
* Reported Oct 12 11:00 am — Oct 27 10:00 am, Paris 10. Weather by CustomWeather, © 2020

Note: Actual official high and low records may vary slightly from our data, if they occured in-between our weather recording intervals... More about our weather records

Paris 10 Weather History for the Previous 24 Hours

Scroll right to see more
 ConditionsComfort  
Time TempWeatherWind HumidityBarometerVisibility
10:00 am
Tue, Oct 27
46 °FLow clouds.9 mph93%29.77 "HgN/A
9:30 am46 °FLow clouds.9 mph93%29.77 "HgN/A
9:00 am46 °FLow clouds.8 mph93%29.77 "HgN/A
8:30 am45 °FLow clouds.9 mph93%29.77 "HgN/A
8:00 am45 °FLow clouds.8 mph93%29.74 "HgN/A
7:30 am45 °FMostly cloudy.7 mph93%29.77 "HgN/A
7:00 am45 °FMostly cloudy.7 mph93%29.74 "HgN/A
6:30 am46 °FLow clouds.9 mph87%29.74 "HgN/A
6:00 am46 °FLow clouds.7 mph87%29.74 "HgN/A
5:30 am46 °FLow clouds.8 mph87%29.74 "HgN/A
5:00 am45 °FLow clouds.8 mph93%29.74 "HgN/A
4:30 am45 °FPassing clouds.8 mph93%29.74 "HgN/A
4:00 am46 °FLow clouds.8 mph93%29.74 "HgN/A
3:30 am46 °FLow clouds.8 mph93%29.74 "HgN/A
3:00 am46 °FPassing clouds.8 mph93%29.74 "HgN/A
2:30 am46 °FPassing clouds.10 mph93%29.74 "HgN/A
2:00 am46 °FLow clouds.9 mph93%29.74 "HgN/A
1:30 am46 °FPassing clouds.7 mph93%29.74 "HgN/A
12:30 am46 °FPassing clouds.7 mph87%29.74 "HgN/A
12:00 am46 °FPassing clouds.9 mph87%29.74 "HgN/A
11:30 pm
Mon, Oct 26
46 °FClear.8 mph87%29.74 "Hg10 mi
11:00 pm46 °FClear.8 mph87%29.74 "Hg10 mi
10:30 pm46 °FClear.8 mph87%29.71 "Hg10 mi
10:00 pm48 °FClear.9 mph87%29.71 "Hg10 mi
9:30 pm48 °FClear.7 mph87%29.71 "Hg10 mi
9:00 pm50 °FPassing clouds.8 mph76%29.71 "HgN/A
8:30 pm50 °FPassing clouds.8 mph76%29.71 "HgN/A
7:30 pm52 °FMostly cloudy.9 mph77%29.68 "HgN/A
7:00 pm52 °FMostly cloudy.6 mph77%29.68 "HgN/A
6:30 pm52 °FOvercast.7 mph77%29.68 "HgN/A
6:00 pm52 °FPartly cloudy.8 mph72%29.68 "HgN/A
5:30 pm54 °FBroken clouds.9 mph67%29.65 "HgN/A
5:00 pm54 °FPartly sunny.10 mph67%29.65 "HgN/A
4:30 pm55 °FScattered clouds.12 mph63%29.65 "HgN/A
4:00 pm55 °FScattered clouds.13 mph63%29.65 "HgN/A
3:30 pm55 °FPartly sunny.15 mph63%29.65 "HgN/A
3:00 pm55 °FBroken clouds.15 mph63%29.65 "HgN/A
2:30 pm55 °FBroken clouds.15 mph63%29.65 "HgN/A
2:00 pm55 °FPartly sunny.16 mph63%29.65 "HgN/A
1:30 pm55 °FBroken clouds.17 mph63%29.65 "HgN/A
1:00 pm55 °FPartly sunny.15 mph67%29.65 "HgN/A
12:30 pm54 °FPartly sunny.15 mph72%29.68 "HgN/A
12:00 pm52 °FPartly sunny.15 mph77%29.68 "HgN/A
11:30 am52 °FPassing clouds.12 mph77%29.68 "HgN/A
11:00 am50 °FPartly sunny.13 mph82%29.68 "HgN/A
Weather by CustomWeather, © 2020

See weather overview